Weather History for Frankfort, KY

Change the Weather History Date:

Tuesday, November 22, 2011

  Actual Average Record
Temperature  
Mean Temperature 58 °F 44 °F  
Max Temperature 66 °F 53 °F 78 °F (1931)
Min Temperature 49 °F 34 °F 10 °F (1964)
Degree Days  
Heating Degree Days 7 22  
Month to date heating degree days 315 383  
Since 1 July heating degree days 723 724  
Cooling Degree Days 0 0  
Month to date cooling degree days 1 0  
Year to date cooling degree days 1286 1154  
Growing Degree Days 8 (Base 50)    
Moisture  
Dew Point 58 °F    
Average Humidity 88    
Maximum Humidity 97    
Minimum Humidity 78    
Precipitation  
Precipitation 1.13 in 0.13 in 1.53 in (1942)
Month to date precipitation 4.57 2.63  
Year to date precipitation 58.30 40.51  
Sea Level Pressure  
Sea Level Pressure 29.93 in    
Wind  
Wind Speed 10 mph (SSE)    
Max Wind Speed 26 mph    
Max Gust Speed 35 mph    
Visibility 6 miles    
Events Rain , Thunderstorm    
T = Trace of Precipitation, MM = Missing Value Source: NWS Daily Summary

Daily Weather History Graph

Daily Weather History Graph

Search for Another Location

Airport:

Trip Planner

Search our weather history database for the weather conditions in past years. The results will help you decide how hot, cold, wet, or windy it might be!

Date:

Astronomy

Nov. 22, 2011 Rise Set
Actual Time 7:27 AM EST 5:23 PM EST
Civil Twilight 6:59 AM EST 5:51 PM EST
Nautical Twilight 6:27 AM EST 6:24 PM EST
Astronomical Twilight 5:55 AM EST 6:55 PM EST
Moon 4:19 AM EST (11/22) 3:20 PM EST (11/22)
Length of Visible Light 10h 52m
Length of Day
9h 55m
Waning Crescent, 9% of the Moon is Illuminated
Nov 22
Waning Crescent
Nov 25
New
Dec 2
First Quarter
Dec 10
Full
Dec 17
Last Quarter

Hourly Weather History & Observations

Time (EST) Temp. Dew Point Humidity Pressure Visibility Wind Dir Wind Speed Gust Speed Precip Events Conditions
12:06 AM 57.2 °F 57.2 °F 100% 30.07 in 1.8 mi ESE 4.6 mph - 0.07 in Rain Rain
12:10 AM 57.2 °F 57.2 °F 100% 30.07 in 3.0 mi ESE 4.6 mph - 0.07 in Rain Light Rain
12:32 AM 57.2 °F 57.2 °F 100% 30.07 in 3.0 mi ESE 3.5 mph - 0.07 in Rain Light Rain
12:44 AM 57.2 °F 57.2 °F 100% 30.06 in 2.0 mi ESE 3.5 mph - 0.09 in Rain Rain
12:53 AM 59.0 °F 57.9 °F 96% 30.06 in 2.5 mi ESE 3.5 mph - 0.10 in Rain Light Rain
1:05 AM 59.0 °F 59.0 °F 100% 30.06 in 4.0 mi Calm Calm - 0.00 in Rain Light Rain
1:35 AM 60.8 °F 59.0 °F 94% 30.07 in 8.0 mi SSE 4.6 mph - 0.00 in   Overcast
1:53 AM 60.1 °F 59.0 °F 96% 30.06 in 10.0 mi SE 5.8 mph - 0.00 in   Overcast
2:08 AM 60.8 °F 59.0 °F 94% 30.07 in 10.0 mi SSE 4.6 mph - N/A   Overcast
2:27 AM 60.8 °F 59.0 °F 94% 30.06 in 7.0 mi SSE 4.6 mph - N/A   Overcast
2:53 AM 60.1 °F 59.0 °F 96% 30.05 in 7.0 mi SSE 3.5 mph - N/A   Overcast
3:06 AM 60.8 °F 59.0 °F 94% 30.05 in 6.0 mi South 5.8 mph - 0.01 in Rain Light Rain
3:13 AM 60.8 °F 59.0 °F 94% 30.04 in 8.0 mi SSE 4.6 mph - 0.01 in Rain Light Rain
3:36 AM 60.8 °F 59.0 °F 94% 30.03 in 8.0 mi South 3.5 mph - 0.01 in   Overcast
3:53 AM 60.1 °F 59.0 °F 96% 30.02 in 8.0 mi SSE 3.5 mph - 0.01 in   Overcast
4:53 AM 59.0 °F 57.9 °F 96% 30.01 in 5.0 mi ESE 4.6 mph - N/A   Overcast
5:11 AM 59.0 °F 59.0 °F 100% 30.02 in 2.5 mi SSE 5.8 mph - 0.00 in Rain Light Rain
5:20 AM 59.0 °F 59.0 °F 100% 30.01 in 4.0 mi SE 5.8 mph - 0.00 in Rain Light Rain
5:35 AM 59.0 °F 59.0 °F 100% 30.01 in 7.0 mi SSE 4.6 mph - 0.00 in   Overcast
5:53 AM 59.0 °F 59.0 °F 100% 30.01 in 4.0 mi South 5.8 mph - 0.02 in Rain Rain
6:19 AM 60.8 °F 59.0 °F 94% 30.01 in 2.0 mi South 6.9 mph - 0.13 in Rain Heavy Rain
6:27 AM 60.8 °F 59.0 °F 94% 30.01 in 3.0 mi South 5.8 mph - 0.14 in Rain Light Rain
6:46 AM 60.8 °F 59.0 °F 94% 29.99 in 5.0 mi South 3.5 mph - 0.21 in Rain Light Rain
6:53 AM 60.1 °F 59.0 °F 96% 29.99 in 6.0 mi South 3.5 mph - 0.21 in Rain Light Rain
7:38 AM 60.8 °F 59.0 °F 94% 30.00 in 2.5 mi Calm Calm - 0.08 in Rain Heavy Rain
7:53 AM 60.1 °F 59.0 °F 96% 29.98 in 2.0 mi Calm Calm - 0.14 in Rain Heavy Rain
7:58 AM 60.8 °F 60.8 °F 100% 29.98 in 1.0 mi Calm Calm - 0.08 in Rain Heavy Rain
8:12 AM 60.8 °F 60.8 °F 100% 29.97 in 2.0 mi Calm Calm - 0.12 in Rain Light Rain
8:31 AM 60.8 °F 59.0 °F 94% 29.96 in 2.0 mi ESE 5.8 mph - 0.12 in   Overcast
8:38 AM 60.8 °F 60.8 °F 100% 29.97 in 1.2 mi SE 5.8 mph - 0.12 in   Overcast
8:45 AM 60.8 °F 60.8 °F 100% 29.97 in 3.0 mi SE 5.8 mph - 0.12 in   Overcast
8:53 AM 60.1 °F 60.1 °F 100% 29.99 in 3.0 mi SSE 12.7 mph 18.4 mph 0.13 in Rain , Thunderstorm Light Rain
8:56 AM 60.8 °F 59.0 °F 94% 29.98 in 1.8 mi SE 9.2 mph 18.4 mph 0.12 in Rain , Thunderstorm Rain
9:01 AM 60.8 °F 60.8 °F 100% 29.98 in 1.0 mi SE 11.5 mph 18.4 mph 0.20 in Rain Heavy Rain
9:08 AM 60.8 °F 59.0 °F 94% 29.97 in 2.0 mi SE 9.2 mph - 0.22 in Rain Rain
9:12 AM 60.8 °F 60.8 °F 100% 29.97 in 3.0 mi SE 8.1 mph - 0.23 in Rain Rain
9:20 AM 60.8 °F 60.8 °F 100% 29.96 in 2.5 mi SE 5.8 mph - 0.25 in Rain Rain
9:27 AM 60.8 °F 60.8 °F 100% 29.95 in 4.0 mi ESE 5.8 mph - 0.26 in Rain Light Rain
9:34 AM 60.8 °F 60.8 °F 100% 29.95 in 5.0 mi SE 4.6 mph - 0.27 in Rain Light Rain
9:43 AM 60.8 °F 60.8 °F 100% 29.95 in 2.0 mi SE 5.8 mph - 0.30 in Rain Rain
9:53 AM 60.1 °F 60.1 °F 100% 29.93 in 5.0 mi SE 5.8 mph - 0.30 in Rain Light Rain
10:27 AM 60.8 °F 60.8 °F 100% 29.92 in 1.8 mi SSE 5.8 mph - 0.12 in Rain Heavy Rain
10:40 AM 62.6 °F 60.8 °F 94% 29.91 in 3.0 mi SSE 8.1 mph - 0.15 in Rain Light Rain
10:53 AM 62.1 °F 61.0 °F 96% 29.90 in 5.0 mi SSE 8.1 mph - 0.15 in Rain Light Rain
11:02 AM 62.6 °F 60.8 °F 94% 29.90 in 2.5 mi SSE 9.2 mph - 0.03 in Rain Rain
11:12 AM 62.6 °F 60.8 °F 94% 29.88 in 3.0 mi SE 11.5 mph - 0.06 in Rain Rain
11:53 AM 66.0 °F 61.0 °F 84% 29.81 in 10.0 mi South 17.3 mph 28.8 mph 0.07 in   Mostly Cloudy
12:53 PM 66.0 °F 59.0 °F 78% 29.75 in 10.0 mi South 23.0 mph 34.5 mph N/A   Mostly Cloudy
1:53 PM 66.0 °F 59.0 °F 78% 29.75 in 10.0 mi SSW 18.4 mph 23.0 mph N/A   Overcast
2:53 PM 66.0 °F 59.0 °F 78% 29.74 in 10.0 mi SSW 18.4 mph 29.9 mph 0.00 in   Overcast
3:53 PM 64.0 °F 59.0 °F 84% 29.72 in 10.0 mi South 11.5 mph 20.7 mph 0.00 in Rain Light Rain
4:53 PM 63.0 °F 57.9 °F 84% 29.73 in 10.0 mi SSW 12.7 mph 20.7 mph 0.01 in   Clear
5:53 PM 63.0 °F 57.0 °F 81% 29.73 in 10.0 mi SSW 15.0 mph 20.7 mph N/A   Mostly Cloudy
6:53 PM 63.0 °F 55.9 °F 78% 29.73 in 10.0 mi SW 15.0 mph 21.9 mph N/A   Overcast
7:53 PM 62.1 °F 55.9 °F 80% 29.73 in 10.0 mi SW 15.0 mph 19.6 mph N/A   Overcast
8:11 PM 62.6 °F 55.4 °F 77% 29.74 in 10.0 mi SSW 11.5 mph - N/A   Overcast
8:53 PM 60.1 °F 57.9 °F 93% 29.76 in 9.0 mi SW 13.8 mph - 0.02 in Rain Light Rain
9:26 PM 57.2 °F 55.4 °F 94% 29.78 in 10.0 mi West 13.8 mph 24.2 mph 0.01 in   Overcast
9:45 PM 57.2 °F 53.6 °F 88% 29.79 in 10.0 mi West 10.4 mph 19.6 mph 0.01 in   Overcast
9:53 PM 57.0 °F 53.1 °F 87% 29.79 in 10.0 mi West 11.5 mph 23.0 mph 0.01 in   Overcast
10:10 PM 55.4 °F 51.8 °F 88% 29.80 in 10.0 mi West 15.0 mph 21.9 mph N/A   Overcast
10:28 PM 53.6 °F 51.8 °F 94% 29.82 in 10.0 mi West 10.4 mph 19.6 mph N/A   Overcast
11:07 PM 51.8 °F 48.2 °F 88% 29.84 in 9.0 mi West 11.5 mph 24.2 mph N/A   Overcast
11:53 PM 48.9 °F 46.9 °F 93% 29.86 in 10.0 mi West 10.4 mph 18.4 mph 0.01 in   Overcast